Flag for U.S.A. Weather past 2 weeks in Oxnard, California, U.S.A.

Now
56 °F

Partly cloudy.


Feels Like: 56 °F
Forecast: 50 / 57 °F
Wind: 3 mph from Northeast

Location: Oxnard Airport

Current Time: Feb 28, 2015 at 9:41:00 PM

Latest Report: Feb 28, 2015 at 8:51 PM


Visibility: 10 mi

Pressure: 29.88 "Hg

Humidity: 70%

Dew point: 46 °F

Location of OxnardLocation

Historic Weather in Oxnard — Graph

°F

Oxnard temperature yesterday

Maximum temperature yesterday: 65 °F (at 1:51 PM)
Minimum temperature yesterday: 51 °F (at 1:51 AM)
Average temperature yesterday: 59 °F

Past Weeks' High & Low Weather Summary

 TemperatureHumidityPressure
High83 °F (Feb 14, 11:51 AM)96% (Feb 16, 6:51 AM)30.27 "Hg (Feb 16, 6:51 AM)
Low45 °F (Feb 24, 4:51 AM)15% (Feb 14, 12:51 PM)29.72 "Hg (Feb 27, 6:51 PM)
Average59 °F70%29.99 "Hg
* Reported Feb 13 7:51 PM — Feb 28 7:51 PM, Oxnard, Weather by CustomWeather, © 2015

Note: Actual official high and low records may vary slightly from our data, if they occured in-between our weather recording intervals... More about our weather records

Advertising

Oxnard weather history for previous 24 hours

 ConditionsComfort  
Time TempWeatherWind HumidityBarometerVisibility
7:51 PM
Sat, Feb 28
57 °FPassing clouds.No wind67%29.87 "Hg10 mi
6:51 PM55 °FPassing clouds.5 mph74%29.86 "Hg10 mi
5:51 PM57 °FScattered clouds.8 mph67%29.85 "Hg10 mi
4:51 PM60 °FPartly sunny.12 mph62%29.84 "Hg10 mi
3:51 PM62 °FPassing clouds.14 mph54%29.83 "Hg10 mi
2:51 PM63 °FSunny.14 mph48%29.82 "Hg10 mi
1:51 PM63 °FSunny.18 mph48%29.82 "Hg10 mi
12:51 PM64 °FSunny.20 mph49%29.83 "Hg10 mi
11:51 AM63 °FSunny.20 mph50%29.85 "Hg10 mi
10:51 AM61 °FSunny.16 mph56%29.85 "Hg10 mi
9:51 AM60 °FSunny.16 mph58%29.85 "Hg10 mi
8:51 AM57 °FSunny.5 mph58%29.84 "Hg10 mi
7:51 AM54 °FSunny.3 mph67%29.82 "Hg10 mi
6:51 AM49 °FSunny.3 mph77%29.78 "Hg10 mi
5:51 AM54 °FClear.7 mph64%29.76 "Hg10 mi
4:51 AM56 °FClear.12 mph58%29.75 "Hg10 mi
3:51 AM56 °FClear.16 mph62%29.74 "Hg10 mi
2:51 AM56 °FClear.15 mph62%29.75 "Hg10 mi
1:51 AM56 °FPassing clouds.20 mph62%29.75 "Hg10 mi
12:51 AM57 °FPassing clouds.20 mph64%29.75 "Hg10 mi
11:51 PM
Fri, Feb 27
57 °FClear.23 mph67%29.74 "Hg10 mi
10:51 PM58 °FClear.21 mph70%29.73 "Hg10 mi
9:51 PM59 °FClear.18 mph64%29.74 "Hg10 mi
Weather by CustomWeather, © 2015

See weather overviewHow to use our weather pages